Regional Weather Roundup
Issued by NWS

Home | Current Version | Previous Version | Text Only | Print | Product List | Glossary Off
Versions: 1 2 3 4 5 6 7 8 9 10 11 12 13 14 15 16 17 18 19 20 21 22 23 24 25 26 27 28 29 30 31 32 33 34 35 36 37 38 39 40 41 42 43 44 45 46 47 48

000
ASUS45 KBOI 150510
RWRID
WEATHER ROUNDUP FOR IDAHO
NATIONAL WEATHER SERVICE BOISE ID
1100 PM MDT SUN SEP 14 2014

NOTE: "FAIR" INDICATES FEW OR NO CLOUDS BELOW 12000 FEET
WITH NO SIGNIFICANT WEATHER AND/OR OBSTRUCTIONS TO VISIBILITY

IDZ012-014-150600-
SOUTHWEST IDAHO


CITY           SKY/WX    TMP DP  RH WIND       PRES   REMARKS
BOISE          CLEAR     65  35  33 CALM      29.94S
CALDWELL       CLEAR     59  37  44 CALM      29.94S
MOUNTAIN HOME  CLEAR     63  32  30 W7        29.96R
$$

IDZ016-017-150600-
SOUTHCENTRAL IDAHO


CITY           SKY/WX    TMP DP  RH WIND       PRES   REMARKS
BURLEY         PTCLDY    61  39  44 SW3       30.01R
JEROME         CLEAR     63  42  46 NW5       30.02R
TWIN FALLS     CLEAR     67  34  29 S9        30.01R
$$

IDZ019>023-150600-
SOUTHEAST IDAHO


CITY           SKY/WX    TMP DP  RH WIND       PRES   REMARKS
IDAHO FALLS    CLEAR     60  35  39 SE3       30.05S
POCATELLO      CLEAR     69  27  20 S7        30.03S
REXBURG        CLEAR     52  35  52 NE6       30.07R
$$

IDZ006-010-011-018-031-032-150600-
CENTRAL IDAHO MOUNTAINS


CITY           SKY/WX    TMP DP  RH WIND       PRES   REMARKS
MCCALL         CLEAR     60  34  37 N8        30.07R
HAILEY         CLEAR     59  36  41 NW5       30.11R
STANLEY          N/A     50  24  36 S5        30.19R
SALMON         CLEAR     54  28  37 CALM      30.05R
CHALLIS        CLEAR     56  27  32 SW5       30.08R
$$

IDZ002-004-006-007-026-150600-
NORTHERN IDAHO


CITY           SKY/WX    TMP DP  RH WIND       PRES   REMARKS
LEWISTON       CLEAR     67  28  23 SW3       29.93S
LOWELL           N/A     53  46  77 N5        30.02R
COEUR D`ALENE  CLEAR     55  37  50 E8        29.99S
MULLAN PASS    CLEAR     53  26  35 VRB5      30.15S
$$



USA.gov is the U.S. government's official web portal to all federal, state and local government web resources and services.